Time,TemperatureF,DewpointF,PressureIn,WindDirection,WindDirectionDegrees,WindSpeedMPH,WindSpeedGustMPH,Humidity,HourlyPrecipIn,Conditions,Clouds,dailyrainin,SoftwareType,DateUTC
2013-02-14 00:02:00,24.0,23.0,-100.00,North,0,4.0,7.0,96,0.00,,,-99.99,,2013-02-14 05:02:00,
2013-02-14 00:11:00,24.0,23.0,-100.00,North,0,4.0,6.0,96,0.00,,,-99.99,,2013-02-14 05:11:00,
2013-02-14 00:22:00,24.0,24.0,-100.00,North,350,4.0,8.0,96,0.00,,,-99.99,,2013-02-14 05:22:00,
2013-02-14 00:32:00,25.0,24.0,-100.00,North,0,4.0,9.0,96,0.00,,,-99.99,,2013-02-14 05:32:00,
2013-02-14 00:42:00,25.0,24.0,-100.00,NNW,345,4.0,7.0,96,0.00,,,-99.99,,2013-02-14 05:42:00,
2013-02-14 00:52:00,25.0,24.0,-100.00,North,350,3.0,7.0,96,0.00,,,-99.99,,2013-02-14 05:52:00,
2013-02-14 01:02:00,25.0,24.0,-100.00,North,5,4.0,6.0,96,0.00,,,-99.99,,2013-02-14 06:02:00,
2013-02-14 01:11:00,25.0,24.0,-100.00,North,10,4.0,9.0,96,0.00,,,-99.99,,2013-02-14 06:11:00,
2013-02-14 01:21:00,25.0,24.0,-100.00,North,10,4.0,7.0,96,0.00,,,-99.99,,2013-02-14 06:21:00,
2013-02-14 01:32:00,25.0,24.0,-100.00,North,10,5.0,7.0,95,0.00,,,-99.99,,2013-02-14 06:32:00,
2013-02-14 01:42:00,25.0,24.0,-100.00,North,5,3.0,7.0,95,0.00,,,-99.99,,2013-02-14 06:42:00,
2013-02-14 01:51:00,25.0,24.0,-100.00,NNW,345,3.0,6.0,95,0.00,,,-99.99,,2013-02-14 06:51:00,
2013-02-14 02:01:00,25.0,24.0,-100.00,North,350,2.0,6.0,95,0.00,,,-99.99,,2013-02-14 07:01:00,
2013-02-14 02:11:00,25.0,24.0,-100.00,North,350,2.0,6.0,95,0.00,,,-99.99,,2013-02-14 07:11:00,
2013-02-14 02:21:00,25.0,24.0,-100.00,NNW,345,4.0,7.0,95,0.00,,,-99.99,,2013-02-14 07:21:00,
2013-02-14 02:32:00,25.0,24.0,-100.00,NNW,340,4.0,7.0,95,0.00,,,-99.99,,2013-02-14 07:32:00,
2013-02-14 02:42:00,25.0,24.0,-100.00,NNW,340,4.0,7.0,95,0.00,,,-99.99,,2013-02-14 07:42:00,
2013-02-14 02:52:00,25.0,24.0,-100.00,NNW,330,3.0,6.0,95,0.00,,,-99.99,,2013-02-14 07:52:00,
2013-02-14 03:01:00,25.0,24.0,-100.00,NNW,335,3.0,6.0,95,0.00,,,-99.99,,2013-02-14 08:01:00,
2013-02-14 03:11:00,26.0,24.0,-100.00,NNW,335,2.0,5.0,95,0.00,,,-99.99,,2013-02-14 08:11:00,
2013-02-14 03:22:00,26.0,24.0,-100.00,North,355,4.0,7.0,95,0.00,,,-99.99,,2013-02-14 08:22:00,
2013-02-14 03:32:00,26.0,24.0,-100.00,NNW,340,5.0,8.0,94,0.00,,,-99.99,,2013-02-14 08:32:00,
2013-02-14 03:43:00,26.0,25.0,-100.00,North,350,4.0,7.0,94,0.00,,,-99.99,,2013-02-14 08:43:00,
2013-02-14 03:52:00,26.0,25.0,-100.00,NNW,335,7.0,9.0,94,0.00,,,-99.99,,2013-02-14 08:52:00,
2013-02-14 04:02:00,26.0,25.0,-100.00,NNW,340,8.0,11.0,94,0.00,,,-99.99,,2013-02-14 09:02:00,
2013-02-14 04:11:00,26.0,25.0,-100.00,NNW,345,6.0,11.0,94,0.00,,,-99.99,,2013-02-14 09:11:00,
2013-02-14 04:21:00,27.0,25.0,-100.00,NNW,335,6.0,9.0,94,0.00,,,-99.99,,2013-02-14 09:21:00,
2013-02-14 04:32:00,27.0,26.0,-100.00,NNW,330,6.0,11.0,93,0.00,,,-99.99,,2013-02-14 09:32:00,
2013-02-14 04:42:00,28.0,26.0,-100.00,NNW,330,7.0,11.0,92,0.00,,,-99.99,,2013-02-14 09:42:00,
2013-02-14 04:51:00,27.0,25.0,-100.00,WNW,300,6.0,7.0,92,0.00,,,-99.99,,2013-02-14 09:51:00,
2013-02-14 05:02:00,26.0,25.0,-100.00,WNW,290,6.0,10.0,92,0.00,,,-99.99,,2013-02-14 10:02:00,
2013-02-14 05:11:00,26.0,24.0,-100.00,WNW,295,5.0,7.0,93,0.00,,,-99.99,,2013-02-14 10:11:00,
2013-02-14 05:21:00,27.0,25.0,-100.00,NNW,330,5.0,9.0,93,0.00,,,-99.99,,2013-02-14 10:21:00,
2013-02-14 05:32:00,26.0,25.0,-100.00,NW,305,5.0,7.0,93,0.00,,,-99.99,,2013-02-14 10:32:00,
2013-02-14 05:42:00,26.0,25.0,-100.00,NW,305,5.0,7.0,93,0.00,,,-99.99,,2013-02-14 10:42:00,
2013-02-14 05:52:00,26.0,25.0,-100.00,WNW,295,7.0,9.0,94,0.00,,,-99.99,,2013-02-14 10:52:00,
2013-02-14 06:02:00,26.0,25.0,-100.00,NW,305,6.0,9.0,94,0.00,,,-99.99,,2013-02-14 11:02:00,
2013-02-14 06:11:00,26.0,25.0,-100.00,NW,305,7.0,9.0,94,0.00,,,-99.99,,2013-02-14 11:11:00,
2013-02-14 06:22:00,26.0,25.0,-100.00,WNW,295,7.0,10.0,94,0.00,,,-99.99,,2013-02-14 11:22:00,
2013-02-14 06:32:00,26.0,25.0,-100.00,WNW,300,7.0,10.0,95,0.00,,,-99.99,,2013-02-14 11:32:00,
2013-02-14 06:42:00,26.0,25.0,-100.00,NW,305,7.0,10.0,95,0.00,,,-99.99,,2013-02-14 11:42:00,
2013-02-14 06:52:00,27.0,26.0,-100.00,NW,310,5.0,8.0,95,0.00,,,-99.99,,2013-02-14 11:52:00,
2013-02-14 07:02:00,27.0,26.0,-100.00,WNW,290,6.0,9.0,95,0.00,,,-99.99,,2013-02-14 12:02:00,
2013-02-14 07:12:00,27.0,26.0,-100.00,WNW,300,6.0,9.0,95,0.00,,,-99.99,,2013-02-14 12:12:00,
2013-02-14 07:22:00,28.0,27.0,-100.00,NW,315,7.0,11.0,95,0.00,,,-99.99,,2013-02-14 12:22:00,
2013-02-14 07:32:00,29.0,27.0,-100.00,NW,320,9.0,11.0,95,0.00,,,-99.99,,2013-02-14 12:32:00,
2013-02-14 07:42:00,29.0,28.0,-100.00,NW,310,7.0,12.0,95,0.00,,,-99.99,,2013-02-14 12:42:00,
2013-02-14 07:53:00,29.0,28.0,-100.00,NW,315,9.0,12.0,95,0.00,,,-99.99,,2013-02-14 12:53:00,
2013-02-14 08:02:00,29.0,28.0,-100.00,NW,315,8.0,13.0,95,0.00,,,-99.99,,2013-02-14 13:02:00,
2013-02-14 08:11:00,29.0,28.0,-100.00,NW,305,8.0,13.0,95,0.00,,,-99.99,,2013-02-14 13:11:00,
2013-02-14 08:21:00,29.0,28.0,-100.00,NW,320,9.0,12.0,95,0.00,,,-99.99,,2013-02-14 13:21:00,
2013-02-14 08:32:00,29.0,28.0,-100.00,NW,315,9.0,12.0,95,0.00,,,-99.99,,2013-02-14 13:32:00,
2013-02-14 08:42:00,29.0,28.0,-100.00,WNW,290,7.0,11.0,95,0.00,,,-99.99,,2013-02-14 13:42:00,
2013-02-14 08:51:00,29.0,28.0,-100.00,WNW,290,7.0,9.0,95,0.00,,,-99.99,,2013-02-14 13:51:00,
2013-02-14 09:01:00,29.0,28.0,-100.00,WNW,290,8.0,12.0,95,0.00,,,-99.99,,2013-02-14 14:01:00,
2013-02-14 09:11:00,29.0,28.0,-100.00,WNW,295,7.0,11.0,95,0.00,,,-99.99,,2013-02-14 14:11:00,
2013-02-14 09:21:00,30.0,29.0,-100.00,NW,305,7.0,12.0,95,0.00,,,-99.99,,2013-02-14 14:21:00,
2013-02-14 09:32:00,30.0,29.0,-100.00,NW,305,7.0,12.0,95,0.00,,,-99.99,,2013-02-14 14:32:00,
2013-02-14 09:42:00,31.0,30.0,-100.00,NW,315,9.0,14.0,95,0.00,,,-99.99,,2013-02-14 14:42:00,
2013-02-14 09:52:00,31.0,30.0,-100.00,NW,310,10.0,12.0,95,0.00,,,-99.99,,2013-02-14 14:52:00,
2013-02-14 10:02:00,32.0,31.0,-100.00,NW,315,11.0,15.0,95,0.00,,,-99.99,,2013-02-14 15:02:00,
2013-02-14 10:11:00,32.0,31.0,-100.00,NW,325,11.0,16.0,94,0.00,,,-99.99,,2013-02-14 15:11:00,
2013-02-14 10:21:00,32.0,31.0,-100.00,NW,315,9.0,14.0,94,0.00,,,-99.99,,2013-02-14 15:21:00,
2013-02-14 10:32:00,33.0,31.0,-100.00,NW,315,8.0,15.0,94,0.00,,,-99.99,,2013-02-14 15:32:00,
2013-02-14 10:42:00,33.0,31.0,-100.00,NW,315,8.0,15.0,94,0.00,,,-99.99,,2013-02-14 15:42:00,
2013-02-14 10:52:00,33.0,31.0,-100.00,WNW,300,8.0,14.0,93,0.00,,,-99.99,,2013-02-14 15:52:00,
2013-02-14 11:02:00,33.0,32.0,-100.00,NW,310,12.0,16.0,93,0.00,,,-99.99,,2013-02-14 16:02:00,
2013-02-14 11:11:00,33.0,32.0,-100.00,NW,305,12.0,17.0,93,0.00,,,-99.99,,2013-02-14 16:11:00,
2013-02-14 11:22:00,34.0,32.0,-100.00,NW,305,10.0,16.0,92,0.00,,,-99.99,,2013-02-14 16:22:00,
2013-02-14 11:32:00,34.0,32.0,-100.00,NW,305,13.0,18.0,91,0.00,,,-99.99,,2013-02-14 16:32:00,
2013-02-14 11:41:00,34.0,32.0,-100.00,NW,320,13.0,19.0,91,0.00,,,-99.99,,2013-02-14 16:41:00,
2013-02-14 11:51:00,35.0,32.0,-100.00,NW,310,16.0,21.0,90,0.00,,,-99.99,,2013-02-14 16:51:00,
2013-02-14 12:01:00,35.0,32.0,-100.00,NNW,335,17.0,22.0,89,0.00,,,-99.99,,2013-02-14 17:01:00,
2013-02-14 12:11:00,36.0,33.0,-100.00,NW,310,12.0,20.0,88,0.00,,,-99.99,,2013-02-14 17:11:00,
2013-02-14 12:21:00,36.0,33.0,-100.00,NNW,330,12.0,20.0,86,0.00,,,-99.99,,2013-02-14 17:21:00,
2013-02-14 12:32:00,36.0,33.0,-100.00,NNW,330,12.0,20.0,86,0.00,,,-99.99,,2013-02-14 17:32:00,
2013-02-14 12:42:00,36.0,32.0,-100.00,NW,315,17.0,22.0,84,0.00,,,-99.99,,2013-02-14 17:42:00,
2013-02-14 12:52:00,37.0,32.0,-100.00,NNW,330,15.0,21.0,84,0.00,,,-99.99,,2013-02-14 17:52:00,
2013-02-14 13:01:00,36.0,32.0,-100.00,NW,320,16.0,24.0,84,0.00,,,-99.99,,2013-02-14 18:01:00,
2013-02-14 13:11:00,37.0,33.0,-100.00,NW,320,16.0,22.0,84,0.00,,,-99.99,,2013-02-14 18:11:00,
2013-02-14 13:23:00,38.0,33.0,-100.00,NW,325,10.0,21.0,83,0.00,,,-99.99,,2013-02-14 18:23:00,
2013-02-14 13:32:00,38.0,33.0,-100.00,NW,325,10.0,21.0,83,0.00,,,-99.99,,2013-02-14 18:32:00,
2013-02-14 13:42:00,37.0,33.0,-100.00,NNW,330,17.0,24.0,83,0.00,,,-99.99,,2013-02-14 18:42:00,
2013-02-14 13:51:00,37.0,32.0,-100.00,NW,320,17.0,24.0,84,0.00,,,-99.99,,2013-02-14 18:51:00,
2013-02-14 14:02:00,37.0,33.0,-100.00,NW,320,15.0,20.0,85,0.00,,,-99.99,,2013-02-14 19:02:00,
2013-02-14 14:11:00,37.0,33.0,-100.00,NNW,335,16.0,21.0,86,0.00,,,-99.99,,2013-02-14 19:11:00,
2013-02-14 14:21:00,37.0,33.0,-100.00,NW,325,13.0,22.0,87,0.00,,,-99.99,,2013-02-14 19:21:00,
2013-02-14 14:32:00,37.0,34.0,-100.00,NNW,330,12.0,18.0,89,0.00,,,-99.99,,2013-02-14 19:32:00,
2013-02-14 14:42:00,37.0,34.0,-100.00,NW,320,9.0,19.0,90,0.00,,,-99.99,,2013-02-14 19:42:00,
2013-02-14 14:52:00,36.0,34.0,-100.00,NW,325,12.0,19.0,92,0.00,,,-99.99,,2013-02-14 19:52:00,
2013-02-14 15:01:00,36.0,34.0,-100.00,NW,325,12.0,19.0,92,0.00,,,-99.99,,2013-02-14 20:01:00,
2013-02-14 15:11:00,36.0,34.0,-100.00,NW,315,12.0,18.0,93,0.00,,,-99.99,,2013-02-14 20:11:00,
2013-02-14 15:21:00,36.0,34.0,-100.00,NW,315,12.0,18.0,93,0.00,,,-99.99,,2013-02-14 20:21:00,
2013-02-14 15:32:00,36.0,34.0,-100.00,NW,310,13.0,19.0,93,0.00,,,-99.99,,2013-02-14 20:32:00,
2013-02-14 15:42:00,36.0,34.0,-100.00,NW,310,13.0,19.0,93,0.00,,,-99.99,,2013-02-14 20:42:00,
2013-02-14 15:52:00,36.0,34.0,-100.00,NW,315,15.0,19.0,93,0.00,,,-99.99,,2013-02-14 20:52:00,
2013-02-14 16:02:00,36.0,34.0,-100.00,NW,310,14.0,23.0,92,0.00,,,-99.99,,2013-02-14 21:02:00,
2013-02-14 16:11:00,36.0,34.0,-100.00,NW,315,12.0,-999.0,92,0.00,,,-99.99,,2013-02-14 21:11:00,
2013-02-14 16:22:00,36.0,34.0,-100.00,NW,315,12.0,-999.0,92,0.00,,,-99.99,,2013-02-14 21:22:00,
2013-02-14 16:32:00,36.0,34.0,-100.00,NW,315,12.0,-999.0,92,0.00,,,-99.99,,2013-02-14 21:32:00,
2013-02-14 16:42:00,36.0,34.0,-100.00,NW,320,15.0,22.0,92,0.00,,,-99.99,,2013-02-14 21:42:00,
2013-02-14 16:51:00,36.0,34.0,-100.00,NW,325,11.0,24.0,92,0.00,,,-99.99,,2013-02-14 21:51:00,
2013-02-14 17:02:00,36.0,34.0,-100.00,NW,325,14.0,21.0,92,0.00,,,-99.99,,2013-02-14 22:02:00,
2013-02-14 17:11:00,36.0,34.0,-100.00,NW,325,14.0,21.0,92,0.00,,,-99.99,,2013-02-14 22:11:00,
2013-02-14 17:21:00,35.0,34.0,-100.00,NNW,330,12.0,20.0,94,0.00,,,-99.99,,2013-02-14 22:21:00,
2013-02-14 17:32:00,35.0,34.0,-100.00,NW,320,12.0,18.0,95,0.00,,,-99.99,,2013-02-14 22:32:00,
2013-02-14 17:42:00,35.0,34.0,-100.00,NW,315,12.0,22.0,95,0.00,,,-99.99,,2013-02-14 22:42:00,
2013-02-14 17:52:00,35.0,34.0,-100.00,NW,315,12.0,19.0,96,0.00,,,-99.99,,2013-02-14 22:52:00,
2013-02-14 18:01:00,35.0,34.0,-100.00,NW,325,14.0,19.0,96,0.00,,,-99.99,,2013-02-14 23:01:00,
2013-02-14 18:11:00,35.0,34.0,-100.00,NNW,335,12.0,19.0,96,0.00,,,-99.99,,2013-02-14 23:11:00,
2013-02-14 18:21:00,35.0,34.0,-100.00,NNW,335,14.0,20.0,96,0.00,,,-99.99,,2013-02-14 23:21:00,
2013-02-14 18:32:00,35.0,34.0,-100.00,NNW,335,15.0,24.0,96,0.00,,,-99.99,,2013-02-14 23:32:00,
2013-02-14 18:42:00,35.0,34.0,-100.00,NNW,330,13.0,24.0,96,0.00,,,-99.99,,2013-02-14 23:42:00,
2013-02-14 18:52:00,35.0,34.0,-100.00,NNW,330,12.0,23.0,96,0.00,,,-99.99,,2013-02-14 23:52:00,
2013-02-14 19:01:00,35.0,34.0,-100.00,NW,325,10.0,19.0,96,0.00,,,-99.99,,2013-02-15 00:01:00,
2013-02-14 19:11:00,35.0,34.0,-100.00,NW,320,12.0,21.0,96,0.00,,,-99.99,,2013-02-15 00:11:00,
2013-02-14 19:22:00,35.0,35.0,-100.00,NNW,330,11.0,17.0,96,0.00,,,-99.99,,2013-02-15 00:22:00,
2013-02-14 19:32:00,36.0,35.0,-100.00,NNW,330,13.0,18.0,95,0.00,,,-99.99,,2013-02-15 00:32:00,
2013-02-14 19:42:00,36.0,35.0,-100.00,NNW,335,14.0,21.0,95,0.00,,,-99.99,,2013-02-15 00:42:00,
2013-02-14 19:51:00,36.0,35.0,-100.00,NNW,335,14.0,21.0,95,0.00,,,-99.99,,2013-02-15 00:51:00,
2013-02-14 20:02:00,37.0,35.0,-100.00,NW,320,12.0,17.0,94,0.00,,,-99.99,,2013-02-15 01:02:00,
2013-02-14 20:11:00,37.0,35.0,-100.00,NNW,330,13.0,19.0,94,0.00,,,-99.99,,2013-02-15 01:11:00,
2013-02-14 20:21:00,37.0,35.0,-100.00,NNW,330,10.0,19.0,93,0.00,,,-99.99,,2013-02-15 01:21:00,
2013-02-14 20:32:00,37.0,35.0,-100.00,North,350,7.0,15.0,93,0.00,,,-99.99,,2013-02-15 01:32:00,
2013-02-14 20:41:00,37.0,35.0,-100.00,North,350,7.0,15.0,93,0.00,,,-99.99,,2013-02-15 01:41:00,
2013-02-14 20:51:00,38.0,35.0,-100.00,NNW,340,9.0,16.0,91,0.00,,,-99.99,,2013-02-15 01:51:00,
2013-02-14 21:01:00,38.0,35.0,-100.00,NNW,340,9.0,16.0,91,0.00,,,-99.99,,2013-02-15 02:01:00,
2013-02-14 21:11:00,38.0,36.0,-100.00,North,10,7.0,15.0,91,0.00,,,-99.99,,2013-02-15 02:11:00,
2013-02-14 21:21:00,38.0,36.0,-100.00,North,10,7.0,12.0,90,0.00,,,-99.99,,2013-02-15 02:21:00,
2013-02-14 21:32:00,38.0,36.0,-100.00,NNE,20,10.0,19.0,89,0.00,,,-99.99,,2013-02-15 02:32:00,
2013-02-14 21:42:00,38.0,33.0,-100.00,NNE,20,16.0,25.0,82,0.00,,,-99.99,,2013-02-15 02:42:00,
2013-02-14 21:52:00,37.0,31.0,-100.00,NNE,30,17.0,25.0,76,0.00,,,-99.99,,2013-02-15 02:52:00,
2013-02-14 22:02:00,37.0,29.0,-100.00,NNE,25,21.0,34.0,73,0.00,,,-99.99,,2013-02-15 03:02:00,
2013-02-14 22:11:00,37.0,29.0,-100.00,NNE,25,21.0,34.0,73,0.00,,,-99.99,,2013-02-15 03:11:00,
2013-02-14 22:22:00,37.0,29.0,-100.00,NNE,25,21.0,34.0,73,0.00,,,-99.99,,2013-02-15 03:22:00,
2013-02-14 22:32:00,37.0,28.0,-100.00,NNE,20,12.0,25.0,70,0.00,,,-99.99,,2013-02-15 03:32:00,
2013-02-14 22:42:00,37.0,28.0,-100.00,NNE,25,17.0,26.0,69,0.00,,,-99.99,,2013-02-15 03:42:00,
2013-02-14 22:52:00,37.0,28.0,-100.00,NNE,30,16.0,24.0,69,0.00,,,-99.99,,2013-02-15 03:52:00,
2013-02-14 23:01:00,37.0,28.0,-100.00,NNE,25,11.0,22.0,69,0.00,,,-99.99,,2013-02-15 04:01:00,
2013-02-14 23:11:00,37.0,28.0,-100.00,NNE,20,12.0,23.0,69,0.00,,,-99.99,,2013-02-15 04:11:00,
2013-02-14 23:21:00,37.0,28.0,-100.00,NE,40,12.0,21.0,69,0.00,,,-99.99,,2013-02-15 04:21:00,
2013-02-14 23:32:00,37.0,28.0,-100.00,NNE,25,12.0,22.0,70,0.00,,,-99.99,,2013-02-15 04:32:00,
2013-02-14 23:42:00,37.0,28.0,-100.00,NNE,20,11.0,21.0,69,0.00,,,-99.99,,2013-02-15 04:42:00,
2013-02-14 23:52:00,37.0,28.0,-100.00,NNE,20,11.0,21.0,69,0.00,,,-99.99,,2013-02-15 04:52:00,